TimeAKST,TemperatureF,Dew PointF,Humidity,Sea Level PressureIn,VisibilityMPH,Wind Direction,Wind SpeedMPH,Gust SpeedMPH,PrecipitationIn,Events,Conditions,WindDirDegrees,DateUTC
12:53 AM,-4.0,-11.0,72,29.73,10.0,NNW,10.4,-,0.00,,Overcast,330,2013-01-26 09:53:00
1:53 AM,-6.0,-14.1,68,29.75,10.0,NNW,9.2,-,0.00,,Overcast,340,2013-01-26 10:53:00
3:53 AM,-9.0,-17.0,68,29.78,10.0,NNW,8.1,-,N/A,,Mostly Cloudy,330,2013-01-26 12:53:00
4:53 AM,-7.1,-16.1,65,29.78,10.0,NNW,6.9,-,N/A,,Overcast,330,2013-01-26 13:53:00
5:53 AM,-8.0,-17.0,65,29.79,10.0,NNW,9.2,-,N/A,,Overcast,340,2013-01-26 14:53:00
6:01 AM,-8.0,-17.0,65,29.60,10.0,NNW,9.2,-,N/A,,Mostly Cloudy,330,2013-01-26 15:01:00
6:53 AM,-9.0,-17.0,68,29.80,10.0,NNW,8.1,-,N/A,,Mostly Cloudy,330,2013-01-26 15:53:00
7:53 AM,-11.0,-20.0,64,29.81,10.0,NNW,8.1,-,N/A,,Scattered Clouds,330,2013-01-26 16:53:00
8:53 AM,-11.0,-20.0,64,29.83,10.0,NW,8.1,-,N/A,,Scattered Clouds,320,2013-01-26 17:53:00
9:53 AM,-11.0,-20.0,64,29.85,10.0,NW,8.1,-,N/A,,Scattered Clouds,320,2013-01-26 18:53:00
10:53 AM,-11.0,-20.0,64,29.86,10.0,NW,5.8,-,N/A,,Scattered Clouds,320,2013-01-26 19:53:00
11:53 AM,-9.0,-18.0,65,29.87,10.0,NW,5.8,-,N/A,,Scattered Clouds,320,2013-01-26 20:53:00
12:53 PM,-7.1,-18.0,59,29.88,10.0,NNW,9.2,-,N/A,,Scattered Clouds,340,2013-01-26 21:53:00
1:53 PM,-6.0,-18.0,56,29.89,10.0,NNW,8.1,-,N/A,,Scattered Clouds,340,2013-01-26 22:53:00
2:53 PM,-6.0,-17.0,59,29.90,10.0,NW,5.8,-,N/A,,Partly Cloudy,310,2013-01-26 23:53:00
3:53 PM,-9.9,-17.0,71,29.92,10.0,NW,3.5,-,N/A,,Partly Cloudy,310,2013-01-27 00:53:00
4:53 PM,-13.0,-20.0,71,29.93,10.0,WNW,4.6,-,N/A,,Partly Cloudy,300,2013-01-27 01:53:00
5:53 PM,-16.1,-20.9,79,29.95,10.0,WNW,6.9,-,N/A,,Partly Cloudy,300,2013-01-27 02:53:00
6:53 PM,-18.0,-24.0,74,29.98,10.0,WNW,8.1,-,N/A,,Partly Cloudy,290,2013-01-27 03:53:00
7:53 PM,-22.0,-27.0,77,30.00,10.0,NW,4.6,-,N/A,,Partly Cloudy,320,2013-01-27 04:53:00
8:53 PM,-23.1,-27.9,78,30.00,10.0,WNW,6.9,-,N/A,,Partly Cloudy,290,2013-01-27 05:53:00
9:27 PM,-23.1,-29.0,74,29.76,10.0,WNW,6.9,-,N/A,,Partly Cloudy,290,2013-01-27 06:27:00
9:53 PM,-24.0,-29.9,74,30.01,10.0,WNW,8.1,-,N/A,,Clear,300,2013-01-27 06:53:00
10:53 PM,-29.0,-34.1,77,30.03,10.0,Calm,Calm,-,N/A,,Clear,0,2013-01-27 07:53:00
11:53 PM,-32.1,-9999,N/A,30.04,10.0,SW,3.5,-,N/A,,Clear,230,2013-01-27 08:53:00